Location: Dehesa de la Cepeda
(40.6574°N, 4.3013°W)
Time: 10:40:20
(UTC+00:00)

Vanguard 2 Rocket - Pass Details

Date: 26 October 2021
Orbit: 555 x 3324 km, 32.9° (Epoch: 08 December)

Event Time Altitude Azimuth Distance (km) Brightness Sun altitude
Exits shadow 04:52:57 - 229° (SW) 5,776 10.5 -21.0°
Reaches altitude 10° 04:53:21 10° 229° (SW) 5,678 10.5 -20.9°
Maximum altitude 05:07:52 44° 165° (SSE) 2,614 9.3 -18.2°
Drops below altitude 10° 05:16:39 10° 97° (E) 3,501 11.2 -16.5°
Sets 05:19:10 0° 90° (E) 4,179 12.2 -16.0°
